Theta_e
314 314 315 315 315 315 315 315 315 315 314 314 315 316 315 314 313 313 315 316 316 316 316 316 316 316 317 320 319 319 322 324 323 321 322 318 318 316 316 317 315 315 316 315 313
311 311 311 311 311 312 312 313 313 314 314 314 313 314 316 315 315 315 315 316 317 316 315 316 318 317 320 321 320 321 324 323 321 320 320 319 318 318 315 316 317 315 314 313 311
310 310 310 310 310 310 310 310 310 311 312 312 312 313 314 316 316 319 317 316 316 315 315 317 318 318 320 320 321 321 322 321 320 318 317 319 318 317 317 319 318 318 317 312 310
312 312 313 313 313 313 313 313 311 310 310 310 311 311 313 315 319 317 316 315 315 314 314 316 317 319 321 322 320 320 321 319 319 317 317 318 318 317 316 318 318 318 318 315 312
313 313 313 313 313 313 313 313 313 313 312 310 309 310 312 316 317 315 315 315 314 313 314 316 318 320 321 321 319 319 321 318 317 316 316 316 316 317 318 318 317 315 315 314 312
313 313 313 313 313 313 313 313 314 313 313 312 310 309 311 316 315 314 316 315 313 312 313 315 318 318 318 319 320 319 317 318 318 317 317 316 317 315 318 317 317 316 313 313 312
313 313 314 313 313 313 313 313 313 314 313 312 311 309 313 314 313 313 314 315 313 312 312 313 316 317 319 320 317 316 318 319 319 317 317 315 317 318 317 316 316 316 314 313 312
313 314 314 314 314 314 314 314 314 314 313 312 311 310 315 314 312 313 314 315 314 312 312 312 314 316 317 316 317 318 319 320 321 318 316 316 318 319 319 318 315 316 315 313 313
307 308 312 314 314 314 314 314 314 313 313 311 310 312 315 314 313 313 315 314 313 311 311 312 314 318 316 319 320 321 321 321 321 317 317 317 318 318 317 316 316 316 316 316 314
308 306 306 308 311 313 314 314 313 313 311 311 312 315 314 314 314 315 315 313 311 311 313 314 316 318 319 320 320 320 319 320 320 319 316 318 317 318 317 316 316 315 315 315 316
311 309 307 306 306 309 311 312 313 313 310 316 317 316 314 314 315 314 315 312 312 314 316 316 318 319 319 320 320 319 319 318 318 318 317 318 318 318 317 316 316 316 316 316 315
310 311 310 307 306 306 308 309 309 309 310 311 310 311 313 314 316 315 314 312 313 315 316 317 317 318 318 318 319 319 318 319 319 319 314 317 316 317 317 317 316 315 315 315 315
311 310 310 310 307 305 306 307 307 307 313 312 310 310 311 311 314 315 314 313 314 316 316 317 317 315 317 318 317 317 318 318 318 319 314 314 316 316 316 315 314 314 314 314 314
316 315 312 309 308 307 308 307 308 311 311 312 310 311 310 311 311 313 313 313 315 315 316 316 316 316 316 316 316 317 317 318 318 318 319 314 317 318 317 317 315 314 314 314 313
319 317 318 313 308 310 309 310 311 306 314 311 310 309 313 312 311 310 310 311 314 315 315 315 317 315 316 316 316 316 312 315 316 317 318 317 318 318 314 314 314 313 313 315 315
320 319 317 316 311 307 307 310 309 310 312 311 312 312 314 312 311 308 310 309 311 313 314 314 310 313 315 310 312 311 312 312 312 315 318 317 318 318 316 314 315 315 314 314 313
322 320 318 317 314 308 308 310 309 310 310 314 314 313 314 315 313 311 311 311 313 314 315 316 315 313 310 313 310 311 315 319 323 322 321 318 318 318 317 314 314 314 314 313 311
325 320 319 318 318 310 308 310 309 311 314 311 312 314 315 315 314 313 313 314 313 314 316 318 318 316 311 315 318 312 316 321 324 321 321 317 317 317 316 315 314 314 313 311 310
324 321 317 317 318 314 309 310 313 313 312 313 313 312 313 314 314 315 314 315 315 314 315 316 316 309 311 310 315 314 314 316 321 319 320 316 317 318 315 314 313 312 310 310 309
321 320 319 318 318 313 308 311 316 313 312 310 312 313 313 313 313 314 315 316 315 315 315 316 316 313 305 306 307 311 311 315 316 321 319 316 318 319 317 314 313 311 310 311 310
319 316 316 316 315 309 308 309 314 313 310 308 310 312 313 313 314 314 313 315 315 315 313 314 315 313 306 309 313 308 311 310 311 317 319 319 318 314 314 314 314 313 311 311 312
317 315 315 315 310 308 308 309 311 311 308 307 308 309 311 311 311 312 313 314 313 313 312 313 316 316 315 313 309 311 314 313 315 315 314 315 317 313 314 313 313 312 311 310 310
315 315 313 314 314 309 309 310 311 313 312 308 308 308 308 308 309 310 312 312 311 312 313 311 313 316 314 311 305 309 311 310 314 313 315 317 316 313 313 313 311 311 311 310 310
313 312 307 308 312 314 311 313 313 312 312 312 308 308 308 308 309 309 311 311 311 310 309 310 313 314 313 314 312 312 311 311 311 313 314 314 314 314 314 314 314 313 313 312 311
309 314 310 308 307 311 312 312 314 313 312 311 311 309 310 312 311 310 310 310 310 307 308 310 312 312 312 312 313 311 313 313 311 311 313 313 313 314 314 313 313 312 311 311 311
304 311 307 309 311 309 310 311 313 314 314 314 313 312 309 311 312 316 314 311 312 307 308 308 311 311 312 312 312 311 311 312 313 313 312 311 311 311 311 311 311 311 311 311 311
300 301 299 303 308 310 310 311 312 313 313 314 314 313 313 310 310 312 313 314 313 310 308 308 310 311 312 312 312 313 312 312 312 312 312 312 313 313 313 313 312 312 312 312 312
Wind_Speed
6 6 6 6 7 8 8 9 9 9 9 9 7 6 6 5 5 8 9 8 8 6 4 4 4 5 5 4 4 3 5 7 5 4 2 5 10 5 6 10 7 10 10 9 11
7 7 8 9 9 9 9 9 9 9 8 8 8 7 8 10 11 16 12 10 9 7 5 4 4 6 6 4 4 6 5 5 1 3 4 5 11 9 7 13 18 17 16 18 16
8 8 9 9 10 10 11 10 10 10 11 10 9 9 8 9 11 11 16 14 12 8 7 6 5 7 8 6 6 4 5 2 6 8 6 8 9 11 11 16 17 19 20 21 21
11 11 11 11 12 12 12 13 13 12 12 12 11 10 8 6 6 6 10 14 13 10 8 7 5 5 6 8 7 5 12 8 2 5 4 9 7 9 21 25 7 12 15 23 24
14 14 14 14 14 14 14 14 15 15 15 14 13 12 10 7 13 17 12 14 14 11 8 7 9 8 8 5 5 10 10 7 10 7 11 9 14 13 21 23 21 17 19 19 23
17 17 16 16 17 17 16 16 16 16 16 16 16 14 9 13 14 14 14 16 16 13 10 8 5 6 9 7 7 5 10 13 10 14 11 10 15 6 14 16 24 23 20 21 24
22 21 20 19 19 19 18 18 19 18 18 17 17 14 13 20 18 15 16 17 17 15 11 12 10 4 1 6 6 6 9 13 17 15 7 8 10 18 26 13 14 19 22 22 25
26 26 25 23 22 23 22 21 21 20 19 18 16 11 11 18 18 18 17 17 16 16 16 13 10 6 5 2 5 6 5 10 2 11 6 8 17 13 11 14 17 21 22 23 27
25 27 28 27 26 25 24 23 23 23 21 18 12 9 9 14 14 19 16 13 14 13 12 10 7 6 4 6 12 10 12 15 13 15 4 13 15 4 5 10 20 24 25 27 27
23 24 25 27 27 26 26 24 24 24 18 11 12 6 15 8 11 11 15 14 9 10 5 7 7 8 9 10 14 16 15 17 19 10 13 14 21 22 25 23 28 32 31 32 33
23 23 24 22 24 25 26 20 10 7 8 9 4 8 8 10 9 9 13 14 8 9 11 11 9 17 18 20 22 22 21 22 26 9 11 19 22 23 28 27 29 33 33 32 31
24 25 25 21 20 19 21 10 11 9 12 17 24 27 28 21 7 13 15 14 11 15 16 6 17 22 18 12 15 19 21 26 23 9 8 17 22 21 21 28 34 33 34 26 23
21 23 28 25 18 16 16 17 13 11 9 11 22 18 20 24 15 17 23 12 12 16 19 23 19 2 8 16 15 19 21 23 21 13 13 13 16 15 14 22 26 32 35 25 22
23 23 23 23 14 14 13 12 9 4 6 10 8 7 12 10 8 19 20 13 10 13 19 19 22 21 19 20 18 21 17 19 20 11 12 3 13 14 15 17 13 27 32 23 17
22 25 24 19 12 4 9 4 4 2 10 5 5 5 7 9 3 6 21 11 18 11 6 12 10 8 15 24 12 13 2 6 10 14 17 15 14 16 7 10 12 18 30 22 13
23 22 26 20 11 14 8 3 2 8 12 7 8 9 6 9 3 3 5 6 2 11 13 19 1 5 7 3 4 5 3 4 5 7 11 18 18 8 7 6 9 13 24 14 11
27 25 25 23 9 8 11 9 6 12 3 8 8 8 11 11 9 11 8 12 10 7 13 14 23 6 5 6 4 9 7 6 8 7 17 13 13 16 10 11 14 20 27 6 10
32 30 31 27 21 10 15 5 16 9 24 2 1 6 10 12 9 11 8 10 19 16 6 8 10 21 14 20 7 15 13 6 13 15 25 2 14 10 14 17 23 25 17 11 13
32 35 36 34 28 17 17 11 19 18 18 12 7 10 14 10 7 12 15 13 11 21 13 9 11 4 9 2 7 8 9 3 8 3 9 15 22 16 7 12 14 9 13 21 20
31 32 46 45 34 25 7 25 22 17 16 8 25 15 23 22 12 12 14 10 14 18 21 7 13 6 5 3 4 6 2 5 4 7 18 29 22 16 15 17 11 6 13 24 17
28 10 23 33 34 17 7 14 16 29 33 11 21 24 22 23 22 23 18 18 12 9 18 10 9 7 7 11 15 7 7 6 4 8 11 20 10 9 11 8 7 8 15 20 14
21 4 16 24 12 6 9 11 11 20 10 6 12 22 25 24 25 25 26 23 14 5 10 11 4 12 23 9 6 13 20 21 12 17 8 15 28 3 6 2 7 6 8 14 20
10 10 15 33 9 8 7 20 15 14 16 7 12 12 14 17 14 20 21 19 19 9 7 7 5 6 10 8 4 8 13 12 18 14 25 18 25 11 19 12 10 12 14 18 23
11 4 7 22 20 16 18 21 23 28 21 23 10 11 14 18 20 13 22 14 22 7 5 8 4 10 19 24 5 10 20 20 21 16 27 27 31 39 31 25 26 29 35 28 30
10 10 15 6 11 15 10 9 23 17 21 19 9 23 18 11 16 16 26 32 26 6 4 3 17 21 28 33 32 26 15 13 24 27 24 31 24 25 30 27 24 34 45 36 45
8 7 6 15 32 25 25 21 27 26 22 21 24 24 26 21 20 27 21 16 18 1 11 11 11 18 24 28 31 33 29 30 35 27 28 27 29 32 38 46 37 45 50 34 42
15 14 11 4 7 12 21 29 31 30 37 38 30 24 23 29 44 49 42 29 12 9 12 7 7 10 19 25 25 22 38 37 37 38 34 31 40 41 37 32 30 44 41 36 38
Wind_Direction
327 337 343 348 351 357 2 5 9 13 14 9 353 291 272 278 275 261 252 234 232 228 244 250 281 232 211 227 217 221 250 265 277 259 340 161 208 208 224 225 209 223 242 224 199
313 319 324 330 334 338 340 343 344 345 346 348 344 331 296 276 277 267 247 234 229 231 235 226 256 211 231 234 225 236 253 280 306 266 259 202 228 210 217 219 232 237 232 239 211
305 313 319 323 326 330 332 332 331 329 328 328 328 323 313 294 293 258 242 228 230 231 233 229 222 203 244 241 210 205 252 355 246 238 244 243 227 219 230 246 230 236 234 230 215
294 301 306 311 316 319 323 323 324 323 319 318 317 313 303 288 276 291 232 222 228 228 224 221 205 217 242 226 211 257 247 247 263 236 239 238 254 227 228 238 251 245 244 220 221
289 293 297 300 304 307 310 313 313 315 315 312 309 305 295 260 256 270 250 231 231 231 229 226 233 249 250 239 235 251 276 250 242 228 238 251 241 249 255 250 249 249 240 215 228
287 289 291 296 299 301 304 306 306 307 306 306 305 299 274 256 260 264 248 238 234 232 242 232 265 254 290 256 233 339 281 268 258 247 239 231 257 233 263 251 244 237 239 228 227
285 287 290 293 296 297 300 303 303 304 302 299 296 291 261 257 265 260 246 237 235 234 237 243 247 235 253 257 249 273 284 276 247 241 241 211 254 237 255 250 237 235 235 233 231
285 287 288 289 292 294 298 302 303 302 299 296 288 271 256 264 258 251 240 236 234 236 236 242 236 230 227 260 248 259 253 271 128 185 198 192 264 252 250 217 237 245 245 239 234
281 282 284 287 290 292 295 299 303 303 300 290 277 236 260 259 248 245 232 228 227 226 223 226 215 236 205 237 265 210 266 267 255 193 162 208 268 281 195 238 260 259 255 245 241
287 286 283 284 285 288 292 299 304 300 289 277 244 242 243 241 243 236 223 212 201 201 202 200 218 240 223 230 249 274 276 272 270 196 216 231 251 272 271 270 269 267 265 260 251
290 285 284 287 286 289 292 304 305 283 252 221 234 242 276 246 245 228 209 198 191 204 216 200 220 232 239 231 250 275 281 277 274 268 214 243 256 265 273 276 274 272 271 263 258
302 296 292 289 284 284 286 284 260 265 291 262 255 251 254 261 250 226 200 184 193 220 216 206 233 248 271 288 267 261 264 269 275 289 206 266 267 268 269 266 270 273 271 270 267
315 311 306 300 291 281 272 271 272 270 250 244 246 242 241 243 235 234 202 200 214 230 223 237 250 113 263 248 250 249 252 260 265 270 221 269 273 255 248 253 261 266 266 269 255
309 315 315 316 308 293 281 273 261 271 265 225 201 213 225 211 251 212 203 209 207 244 237 253 260 263 254 252 255 260 269 256 265 273 267 136 286 274 288 262 231 265 274 265 246
298 302 312 318 294 305 284 248 235 284 274 113 161 192 187 202 75 201 195 204 231 206 190 230 229 223 237 247 254 253 310 253 257 257 278 262 271 267 205 261 240 244 258 272 251
285 288 296 306 302 265 242 206 255 246 249 193 160 175 173 206 206 122 190 198 243 241 236 257 65 229 237 109 238 108 253 248 231 260 253 252 241 287 208 206 233 251 261 245 244
273 273 272 281 272 266 201 147 261 235 47 201 214 188 203 198 201 192 177 192 193 186 222 225 227 200 181 198 171 202 211 263 246 227 265 268 259 261 280 226 238 258 264 221 218
265 258 255 258 267 241 184 194 239 238 229 90 331 212 212 183 225 205 203 224 226 234 275 231 241 197 195 218 219 198 210 222 269 271 284 46 265 261 234 239 242 248 250 229 219
263 255 243 240 242 225 179 213 240 232 250 260 226 244 224 225 247 199 216 227 218 204 213 211 245 136 178 170 194 165 206 273 273 146 278 267 263 253 169 196 220 218 229 243 229
282 264 248 244 232 205 221 231 246 224 268 280 236 220 244 231 200 198 216 229 237 207 226 245 262 160 135 166 214 233 97 197 200 271 265 279 281 271 254 231 218 234 238 256 246
274 245 256 236 218 170 202 229 264 259 268 265 255 261 252 247 245 232 241 256 219 215 210 238 233 224 136 201 199 185 222 216 290 233 255 275 269 80 101 103 141 215 237 253 250
255 249 232 199 187 188 210 216 235 263 271 298 276 275 265 261 259 252 243 248 213 186 196 216 253 234 233 228 272 258 231 217 222 232 228 249 271 122 234 135 157 181 232 264 269
244 240 214 199 206 208 230 230 236 252 243 212 239 243 283 287 298 279 262 262 275 192 217 166 215 240 261 242 177 212 227 241 235 252 246 241 255 189 263 256 231 233 252 255 261
265 237 188 226 228 239 217 224 227 236 242 232 214 266 268 261 255 266 266 274 257 264 348 160 214 236 239 248 268 212 224 221 225 231 244 241 257 274 269 276 279 280 275 272 261
245 238 224 201 237 237 234 227 237 233 219 205 212 212 209 235 245 245 247 256 266 256 357 259 248 241 247 260 269 272 269 250 232 239 241 257 253 260 276 270 275 285 283 281 280
276 295 298 280 228 213 220 224 231 239 230 230 224 222 213 223 216 258 238 234 238 171 255 237 246 245 249 252 261 264 262 259 257 248 245 249 265 263 261 273 274 273 274 285 282
267 290 326 273 277 253 224 224 231 232 240 235 239 235 229 218 224 237 246 255 222 204 198 204 211 221 240 235 245 255 244 247 254 254 248 249 246 257 268 259 259 268 280 280 281